Location: Chandrammap?lem
(16.9200°N, 81.0051°E)
Time: 02:05:41
(UTC+00:00)

ATLAS 2AS CENTAUR R/B - Pass Details

Date: 29 May 2024
Orbit: 1017 x 1194 km, 63.7° (Epoch: 16 June)

Event Time Altitude Azimuth Distance (km) Brightness Sun altitude
Rises 22:25:24 0° 321° (NW) 3,778 5.5 -21.3°
Reaches altitude 10° 22:28:15 10° 312° (NW) 2,811 4.7 -20.7°
Maximum altitude 22:34:05 34° 249° (WSW) 1,600 3.1 -19.5°
Enters shadow 22:36:16 28° 214° (SW) 1,819 3.4 -19.1°
Exits shadow 22:39:22 12° 189° (S) 2,628 4.4 -18.4°
Drops below altitude 10° 22:39:54 10° 186° (S) 2,797 4.5 -18.3°
Sets 22:42:45 0° 177° (S) 3,757 5.3 -17.7°
